CAPE
15 36 38 27 27 28 31 24 17 18 19 17 15 9 3 1 0 0 0 0 0 0 0 0 0 0 0 0 0 0 0 0 0 0 0 0 0 0 0 0 0 0 0 0 54 0 0
20 17 20 6 5 7 9 15 11 27 22 18 16 11 3 1 0 0 0 0 0 0 0 0 0 0 0 0 0 0 0 0 0 0 0 0 0 0 0 0 0 0 0 7 3 0 0
17 14 22 19 19 8 2 4 11 22 9 4 14 6 1 0 0 0 0 0 0 0 0 0 0 0 0 0 0 0 0 0 0 0 0 0 0 0 0 0 0 0 0 0 0 0 0
6 7 10 17 16 16 3 3 3 2 17 10 5 2 0 0 0 0 0 0 0 0 0 0 0 0 0 0 0 0 0 0 0 0 0 0 0 0 0 0 0 0 0 0 0 0 0
22 8 11 8 10 2 5 14 3 6 13 9 8 4 0 0 0 0 0 0 0 0 0 0 0 0 0 0 0 0 0 0 0 0 0 0 0 0 0 0 0 0 0 0 0 0 0
16 17 15 10 18 30 18 5 4 21 15 11 8 6 2 0 0 0 0 0 0 0 0 0 0 0 0 0 0 0 0 0 0 0 0 0 0 0 0 0 0 0 0 0 0 0 0
15 19 6 17 14 11 10 31 13 5 7 10 8 12 7 0 0 0 0 0 0 0 0 0 0 0 0 0 0 0 0 0 0 0 0 0 0 0 0 0 0 0 0 0 0 0 0
25 21 20 21 11 8 1 12 20 14 5 7 7 5 1 0 0 0 0 0 0 0 0 0 0 0 0 0 0 0 0 0 0 0 0 0 0 0 0 0 0 0 0 0 0 0 0
21 15 19 25 10 18 15 13 14 14 7 10 10 1 0 0 0 0 0 0 0 0 0 0 0 0 0 0 0 0 0 0 0 0 0 0 0 0 0 0 0 0 0 0 0 0 0
19 34 19 19 19 17 18 15 11 23 17 12 10 0 0 0 0 0 0 0 0 0 0 0 0 0 0 0 0 0 0 0 0 0 0 0 0 0 0 0 0 0 0 0 0 0 0
18 18 27 20 22 11 20 12 14 13 8 10 8 3 0 0 0 0 0 0 0 0 0 0 0 0 0 0 0 0 0 0 0 0 0 0 0 0 0 0 0 0 0 0 0 0 0
28 24 25 23 26 28 22 15 14 12 6 6 4 3 0 0 0 0 0 0 0 0 0 0 0 0 0 0 0 0 0 0 0 0 0 0 0 0 0 0 0 0 0 0 0 0 0
17 27 29 23 22 20 17 19 12 17 9 5 2 0 0 0 0 0 0 0 0 0 0 0 0 0 0 0 0 0 0 0 0 0 0 0 0 0 0 0 0 0 1 0 0 0 0
23 21 28 26 22 21 19 18 14 15 10 2 1 0 0 0 0 0 0 1 0 0 0 0 0 0 0 0 0 0 0 0 0 0 0 0 0 0 0 0 0 0 0 0 0 0 0
34 22 28 24 16 18 17 20 21 15 5 0 0 0 0 0 0 0 1 0 0 0 0 0 0 0 0 0 0 0 0 0 0 0 0 0 0 0 0 0 0 0 0 0 0 0 0
29 35 22 24 17 18 21 22 18 16 1 0 0 0 0 0 0 20 3 1 0 0 0 0 0 0 0 0 0 0 0 0 0 0 0 0 0 0 0 0 0 0 0 0 0 0 0
19 31 22 19 22 21 20 20 14 20 2 0 0 0 0 0 0 14 1 1 0 0 0 0 0 0 0 0 0 0 0 0 0 0 0 0 0 0 0 0 0 0 0 0 0 0 0
27 27 29 20 21 21 19 18 13 16 12 0 0 0 0 0 9 22 2 0 0 0 0 0 0 0 0 0 0 0 0 0 0 0 0 0 0 0 0 0 0 0 0 0 0 0 0
28 19 27 23 20 24 18 17 18 16 17 0 0 0 0 8 1 0 0 0 0 0 0 0 0 0 0 0 0 0 0 0 0 0 0 0 0 0 0 0 0 0 0 0 0 0 0
19 34 19 20 19 21 17 16 14 15 14 0 0 0 0 6 1 0 0 0 1 0 0 0 0 0 0 0 0 0 0 0 0 0 0 0 0 0 0 0 0 0 0 0 0 0 0
26 22 29 14 11 18 14 9 8 19 18 0 0 0 10 0 0 0 0 0 0 0 5 0 0 0 0 0 0 0 0 0 0 0 0 0 0 0 0 0 0 0 0 0 0 0 0
27 19 25 13 8 14 13 12 6 14 2 0 0 1 0 0 0 0 0 0 0 0 0 0 0 0 0 0 0 0 0 0 0 0 0 0 0 0 0 0 0 0 0 0 0 0 0
19 19 22 19 10 20 17 11 5 8 6 0 0 1 0 0 0 0 0 0 0 2 0 3 0 0 0 0 0 0 0 0 0 0 0 0 0 0 0 0 0 0 0 0 0 0 0
17 21 18 17 24 16 15 5 6 4 20 6 4 1 1 0 0 0 0 7 0 0 0 0 0 0 0 0 0 0 0 0 0 0 0 0 0 0 0 0 0 0 0 0 0 0 0
17 20 23 10 4 15 15 10 3 3 11 3 4 5 1 0 0 0 0 0 0 0 0 0 0 0 0 0 0 0 0 0 0 0 0 0 0 0 0 0 0 0 0 0 0 0 0
23 15 12 17 4 8 12 16 6 3 4 2 0 4 4 0 0 0 0 8 0 0 0 0 0 0 0 0 0 0 0 0 0 0 0 0 0 0 0 0 0 0 0 0 0 0 0
15 18 20 29 27 23 21 12 10 2 2 7 1 0 4 1 0 0 0 0 2 0 0 0 0 0 0 0 0 0 0 0 0 0 0 0 0 0 0 0 0 0 0 0 0 0 0
18 12 20 32 36 35 32 20 17 13 7 10 1 0 8 2 0 0 0 0 0 4 0 0 0 0 0 0 0 1 0 0 0 0 0 0 0 0 0 0 0 0 0 0 0 0 0
24 5 16 25 23 21 31 31 23 16 19 12 3 2 1 1 0 0 0 0 0 0 0 0 0 0 0 0 0 0 0 0 0 0 0 0 0 0 0 0 0 0 0 0 0 0 0
CIN
-15 -1 -1 -4 -5 -2 -0 -0 -0 -0 -0 -0 -0 -0 -0 -0 -0 -0 -0 -0 -0 -0 -0 -0 -0 -0 -0 -0 -0 -0 -0 -0 -0 -0 -0 -0 -0 -0 -0 -0 -0 -0 -0 -38 -195 -0 -0
-1 -0 -0 -2 -6 -22 -5 -0 -0 -0 -0 -0 -0 -0 -0 -0 -0 -0 -0 -0 -0 -0 -0 -0 -0 -0 -0 -0 -0 -0 -0 -0 -0 -0 -0 -0 -0 -0 -0 -0 -0 -0 -0 -275 -193 -0 -0
-0 -0 -0 -0 -0 -0 -1 -1 -0 -0 -4 -0 -7 -8 -0 -0 -0 -0 -0 -0 -0 -0 -0 -0 -0 -0 -0 -0 -0 -0 -0 -0 -0 -0 -0 -0 -0 -0 -0 -0 -0 -0 -0 -0 -0 -0 -0
-1 -4 -2 -1 -2 -2 -0 -1 -2 -1 -6 -9 -0 -13 -0 -0 -0 -0 -0 -0 -0 -0 -0 -0 -0 -0 -0 -0 -0 -0 -0 -0 -0 -0 -0 -0 -0 -0 -0 -0 -0 -0 -0 -0 -0 -0 -0
-0 -0 -1 -2 -0 -0 -1 -1 -0 -0 -0 -0 -0 -0 -0 -0 -0 -0 -0 -0 -0 -0 -0 -0 -0 -0 -0 -0 -0 -0 -0 -0 -0 -0 -0 -0 -0 -0 -0 -0 -0 -0 -0 -0 -0 -0 -0
-1 -0 -1 -1 -0 -0 -1 -1 -0 -1 -0 -0 -0 -0 -0 -0 -0 -0 -0 -0 -0 -0 -0 -0 -0 -0 -0 -0 -0 -0 -0 -0 -0 -0 -0 -0 -0 -0 -0 -0 -0 -0 -0 -0 -0 -0 -0
-0 -1 -1 -1 -1 -0 -1 -0 -1 -0 -0 -0 -0 -0 -0 -0 -0 -0 -0 -0 -0 -0 -0 -0 -0 -0 -0 -0 -0 -0 -0 -0 -0 -0 -0 -0 -0 -0 -0 -0 -0 -0 -0 -0 -0 -0 -0
-1 -0 -1 -0 -1 -0 -1 -1 -0 -0 -0 -0 -0 -0 -0 -0 -0 -0 -0 -0 -0 -0 -0 -0 -0 -0 -0 -0 -0 -0 -0 -0 -0 -0 -0 -0 -0 -0 -0 -0 -0 -0 -0 -0 -0 -0 -0
-0 -0 -0 -0 -1 -1 -1 -1 -0 -0 -0 -0 -0 -0 -0 -0 -0 -0 -0 -2 -0 -0 -0 -0 -0 -0 -0 -0 -0 -0 -0 -0 -0 -0 -0 -0 -0 -0 -0 -0 -0 -0 -0 -0 -0 -0 -0
-0 -1 -0 -0 -0 -1 -1 -1 -1 -0 -0 -0 -0 -0 -0 -0 -0 -0 -0 -0 -0 -0 -0 -0 -0 -0 -0 -0 -0 -0 -0 -0 -0 -0 -0 -0 -0 -0 -0 -0 -0 -0 -0 -0 -0 -0 -0
-1 -0 -1 -0 -0 -0 -0 -0 -0 -0 -0 -0 -0 -0 -0 -0 -0 -0 -0 -0 -0 -0 -0 -0 -0 -0 -0 -0 -0 -0 -0 -0 -0 -0 -0 -0 -0 -0 -0 -0 -0 -0 -0 -0 -0 -0 -0
-0 -0 -1 -0 -0 -0 -0 -0 -0 -0 -0 -0 -0 -0 -0 -0 -0 -0 -0 -0 -0 -0 -0 -0 -0 -0 -0 -0 -0 -0 -0 -0 -0 -0 -0 -0 -0 -0 -0 -0 -0 -0 -0 -11 -13 -0 -0
-0 -1 -0 -0 -0 -1 -0 -0 -0 -1 -0 -0 -0 -0 -0 -0 -0 -0 -0 -0 -0 -0 -0 -0 -0 -0 -0 -0 -0 -0 -0 -0 -0 -0 -0 -0 -0 -0 -0 -0 -0 -0 -19 -0 -0 -0 -0
-1 -1 -0 -0 -1 -0 -1 -0 -1 -0 -0 -0 -0 -0 -0 -0 -0 -0 -0 -1 -0 -0 -0 -0 -0 -0 -0 -0 -0 -0 -0 -0 -0 -0 -0 -0 -0 -0 -0 -0 -0 -0 -0 -0 -0 -0 -0
-1 -1 -0 -0 -0 -0 -0 -0 -0 -0 -0 -0 -0 -0 -0 -0 -0 -0 -3 -0 -0 -0 -0 -0 -0 -0 -0 -0 -0 -0 -0 -0 -0 -0 -0 -0 -0 -0 -0 -0 -0 -0 -0 -0 -0 -0 -0
-0 -1 -1 -0 -0 -0 -0 -1 -0 -0 -0 -0 -0 -0 -0 -0 -0 -5 -1 -0 -0 -0 -0 -0 -0 -0 -0 -0 -0 -0 -0 -0 -0 -0 -0 -0 -0 -0 -0 -0 -0 -0 -0 -0 -0 -0 -0
-1 -1 -1 -0 -0 -0 -1 -1 -1 -0 -7 -0 -0 -0 -0 -0 -2 -3 -0 -2 -0 -0 -0 -0 -0 -0 -0 -0 -0 -0 -0 -0 -0 -0 -0 -0 -0 -0 -0 -0 -0 -0 -0 -0 -0 -0 -0
-0 -1 -1 -0 -0 -0 -0 -1 -1 -0 -0 -0 -0 -0 -0 -0 -0 -0 -1 -0 -0 -0 -0 -0 -0 -0 -0 -0 -0 -0 -0 -0 -0 -0 -0 -0 -0 -0 -0 -0 -0 -0 -0 -0 -0 -0 -0
-1 -1 -1 -0 -0 -0 -0 -0 -0 -0 -0 -0 -0 -0 -0 -3 -12 -0 -0 -0 -0 -0 -0 -0 -0 -0 -0 -0 -0 -0 -0 -0 -0 -0 -0 -0 -0 -0 -0 -0 -0 -0 -0 -0 -0 -0 -0
-1 -1 -0 -1 -1 -0 -0 -0 -0 -1 -0 -1 -0 -0 -0 -2 -0 -0 -0 -0 -2 -0 -0 -0 -0 -0 -0 -0 -0 -0 -0 -0 -0 -0 -0 -0 -0 -0 -0 -0 -0 -0 -0 -0 -0 -0 -0
-1 -1 -0 -1 -1 -0 -1 -0 -0 -0 -0 -0 -0 -0 -3 -0 -0 -0 -0 -0 -0 -0 -9 -0 -0 -0 -0 -0 -0 -0 -0 -0 -0 -0 -0 -0 -0 -0 -0 -0 -0 -0 -0 -0 -0 -0 -0
-0 -0 -0 -0 -0 -0 -0 -0 -0 -0 -0 -0 -0 -1 -0 -0 -0 -0 -0 -0 -0 -0 -0 -0 -0 -0 -0 -0 -0 -0 -0 -0 -0 -0 -0 -0 -0 -0 -0 -0 -0 -0 -0 -0 -0 -0 -0
-1 -0 -0 -0 -0 -0 -0 -1 -0 -0 -2 -0 -1 -3 -0 -0 -0 -0 -0 -0 -0 -0 -0 -4 -0 -0 -0 -0 -0 -0 -0 -0 -0 -0 -0 -0 -0 -0 -0 -0 -0 -0 -0 -0 -0 -0 -0
-1 -1 -0 -1 -0 -0 -0 -0 -0 -0 -1 -4 -4 -1 -1 -0 -0 -0 -0 -1 -0 -0 -0 -0 -0 -0 -0 -0 -0 -0 -0 -0 -0 -0 -0 -0 -0 -0 -0 -0 -0 -0 -0 -0 -0 -0 -0
-1 -0 -1 -0 -2 -0 -0 -0 -0 -0 -0 -1 -2 -1 -2 -0 -0 -0 -0 -0 -0 -0 -0 -0 -0 -0 -0 -0 -0 -0 -0 -0 -0 -0 -0 -0 -0 -0 -0 -0 -0 -0 -0 -0 -0 -0 -0
-1 -1 -0 -0 -0 -0 -0 -0 -0 -0 -0 -5 -0 -8 -0 -0 -0 -0 -0 -5 -0 -0 -0 -0 -0 -0 -0 -0 -0 -0 -0 -0 -0 -0 -0 -0 -0 -0 -0 -0 -0 -0 -0 -0 -0 -0 -0
-1 -1 -0 -0 -0 -0 -0 -0 -0 -0 -0 -2 -1 -0 -0 -0 -0 -0 -0 -0 -1 -0 -0 -0 -0 -0 -0 -1 -0 -0 -0 -5 -0 -0 -0 -0 -0 -0 -0 -0 -0 -0 -0 -0 -0 -0 -0
-0 -0 -0 -0 -0 -0 -0 -0 -0 -0 -1 -1 -1 -0 -0 -0 -0 -0 -0 -0 -0 -1 -0 -0 -0 -0 -0 -1 -0 -1 -0 -0 -0 -0 -5 -0 -0 -0 -0 -0 -0 -0 -0 -0 -0 -0 -0
-0 -4 -1 -0 -0 -1 -0 -0 -0 -0 -0 -1 -2 -5 -0 -0 -0 -0 -0 -0 -0 -0 -0 -0 -0 -0 -0 -0 -0 -0 -0 -0 -0 -1 -0 -0 -1 -0 -0 -0 -0 -0 -0 -0 -0 -0 -0
Wind_Speed
29 29 29 30 30 30 31 30 30 31 31 32 31 32 32 32 32 32 33 32 32 32 31 29 27 25 19 17 18 15 6 9 11 11 11 11 15 14 15 13 12 16 14 14 10 8 6
28 29 30 30 31 31 32 31 31 31 31 31 32 32 32 33 33 34 34 34 34 33 32 30 27 24 17 19 15 7 5 9 11 9 10 11 14 15 18 16 14 9 7 5 8 8 8
30 30 31 31 32 32 32 33 33 33 33 33 33 33 33 34 35 36 36 36 35 34 33 30 25 20 20 19 15 9 7 11 11 11 15 18 20 14 16 15 2 2 3 2 5 10 7
30 31 31 32 33 32 33 34 34 35 35 35 35 35 35 36 37 38 38 38 37 36 32 27 21 18 24 19 24 25 23 19 16 16 13 18 17 14 14 8 8 7 7 8 6 7 12
30 31 31 31 32 33 33 34 35 36 36 36 37 37 37 38 39 39 39 39 38 30 22 17 16 17 25 24 18 19 11 11 16 16 16 18 16 13 14 6 7 13 11 10 8 12 12
32 32 32 33 33 34 33 34 35 35 36 36 37 38 38 39 39 40 40 39 29 21 17 14 20 20 23 19 17 14 12 13 15 13 14 14 14 11 10 6 12 12 12 14 13 13 14
30 31 31 32 33 33 34 35 35 36 37 37 38 37 38 38 39 38 36 23 22 22 22 21 19 21 20 17 16 15 16 15 15 12 13 13 14 10 10 10 9 11 13 12 13 14 18
31 30 31 32 33 35 35 35 36 36 37 38 38 38 38 38 38 36 26 22 20 24 33 33 38 33 37 25 20 12 9 13 15 16 13 16 12 10 13 10 8 8 10 14 17 10 17
32 31 32 33 35 35 36 37 36 36 37 38 37 38 38 39 38 23 24 22 24 25 30 33 28 31 26 19 22 17 12 14 19 19 16 16 19 16 12 11 9 11 10 10 8 8 15
33 34 31 33 34 35 36 37 36 37 37 38 38 37 37 37 21 25 21 26 26 21 31 32 28 29 23 20 26 19 16 15 19 18 18 21 24 17 11 13 10 11 13 12 8 9 11
32 32 34 34 34 36 36 38 37 37 38 38 38 37 36 32 29 24 24 28 26 17 33 24 24 20 19 22 17 23 17 19 19 17 17 18 14 14 18 10 12 9 12 10 9 10 13
34 34 33 34 35 35 37 38 38 38 38 38 38 38 37 28 26 24 27 27 16 23 33 25 17 20 20 24 23 18 22 20 22 23 24 27 20 14 15 13 9 10 7 6 9 15 19
34 35 34 34 35 36 37 38 38 38 38 38 39 38 36 27 22 21 25 19 23 31 25 24 22 18 21 26 25 22 21 22 21 23 28 28 31 25 15 13 10 8 11 8 10 12 23
34 34 35 35 35 36 36 37 38 38 39 39 40 38 29 22 21 22 20 21 30 28 30 23 23 20 22 21 28 25 23 25 30 24 24 24 25 21 16 16 10 13 12 10 9 9 19
35 35 35 36 35 36 36 37 38 39 40 39 39 30 24 19 15 14 19 29 31 24 22 27 27 26 26 24 21 28 30 27 28 29 24 23 24 22 20 19 11 17 14 8 13 17 10
36 36 36 36 35 35 36 38 38 39 40 39 34 26 24 22 9 12 22 32 30 21 24 23 26 23 27 27 25 27 29 28 28 29 30 23 26 24 18 21 23 19 14 12 15 11 12
36 36 35 35 36 35 36 37 38 38 38 36 27 23 19 19 10 17 27 32 32 27 25 23 24 26 23 24 30 29 31 27 28 29 31 28 26 29 23 26 24 19 20 18 16 16 13
37 35 35 34 35 35 36 37 37 36 36 30 24 23 17 20 16 19 24 26 28 38 27 26 26 26 24 24 26 34 35 29 21 30 29 34 23 26 29 24 23 24 22 20 17 18 20
36 35 34 34 35 35 35 36 35 34 33 29 28 20 19 14 19 24 26 28 30 35 33 30 26 22 26 26 26 24 34 29 24 21 30 26 29 29 26 25 24 25 23 23 19 20 16
35 34 34 33 33 34 34 35 35 33 32 27 23 22 20 17 18 21 24 26 25 29 34 34 35 32 29 28 24 27 26 27 24 29 24 22 30 33 33 28 22 23 22 21 22 25 21
35 33 33 32 32 33 33 34 35 33 31 25 21 20 21 24 26 28 25 25 27 26 27 29 29 30 28 28 29 23 23 24 24 24 26 27 33 33 29 29 29 28 30 27 27 26 25
33 31 32 30 30 31 32 33 33 33 31 22 22 21 23 27 26 28 25 25 24 26 27 31 32 34 31 31 30 32 26 23 25 25 25 27 32 27 30 26 30 35 34 30 29 31 32
33 30 30 29 30 30 30 31 32 32 28 22 21 21 22 24 25 25 23 27 30 29 27 28 29 33 35 29 29 31 29 28 27 27 27 26 26 29 31 23 26 38 35 34 32 28 29
32 29 28 28 28 28 29 29 29 29 27 22 21 23 22 26 26 26 31 29 30 30 33 32 30 30 28 32 32 29 31 30 32 31 28 27 27 29 32 27 39 35 31 32 32 36 33
32 29 28 27 25 26 27 27 26 26 26 23 22 20 22 26 28 29 29 31 32 29 28 29 24 28 31 29 32 34 33 34 34 33 31 27 27 30 35 37 34 30 26 28 31 37 34
31 29 27 26 23 24 24 24 24 24 25 22 22 18 21 25 24 25 32 27 28 29 27 26 27 26 23 26 29 37 39 34 36 32 27 28 28 33 32 40 46 32 25 22 23 44 32
31 29 29 27 25 23 22 22 22 23 23 21 20 21 20 27 26 22 27 29 26 27 29 26 28 25 22 27 31 35 37 30 37 38 34 32 32 37 36 38 39 30 33 23 36 31 30
29 28 28 27 25 24 24 23 21 21 22 21 21 21 19 24 30 29 24 26 26 27 29 29 25 22 24 28 29 30 34 34 32 33 33 34 34 36 36 42 46 27 26 34 29 26 29
29 27 28 27 27 26 25 22 21 20 21 21 21 19 22 22 26 32 37 36 33 34 30 25 27 25 22 23 25 29 31 30 35 36 29 37 32 34 34 38 24 26 31 27 28 29 27
Wind_Direction
343 345 345 342 339 336 335 328 324 321 318 316 312 311 311 310 309 307 305 301 297 293 290 290 291 294 305 297 292 310 349 331 320 309 297 290 284 284 274 274 273 266 274 262 238 233 245
347 344 341 339 336 334 332 331 328 327 324 319 315 314 311 310 308 305 303 298 294 289 287 286 289 291 298 288 296 319 342 318 311 315 301 294 288 286 278 276 275 282 263 216 228 225 231
349 347 345 341 338 333 330 324 325 324 320 318 317 314 312 309 306 304 301 297 291 286 282 282 287 293 286 280 292 301 312 316 302 305 284 282 285 284 283 278 209 169 232 210 238 243 200
349 343 340 338 336 335 331 328 325 320 317 316 314 311 308 305 303 302 299 294 288 283 280 283 289 292 279 288 269 268 271 283 287 287 292 284 287 283 275 287 258 235 241 238 230 211 242
355 351 349 346 341 336 332 329 326 324 320 316 311 309 307 304 301 299 297 293 284 283 289 292 290 288 279 281 274 272 279 285 283 291 280 281 287 279 275 254 237 255 228 248 236 259 253
348 348 346 344 345 344 340 334 329 326 324 320 315 311 306 304 301 299 297 290 287 289 288 290 283 284 281 282 277 273 271 277 284 286 283 283 282 272 265 204 195 237 241 259 245 243 258
354 354 353 352 350 346 343 342 338 329 321 320 318 315 310 305 301 299 300 298 288 283 275 270 278 272 286 277 285 276 264 267 279 273 270 273 269 207 192 254 253 250 255 256 266 258 259
354 354 353 351 351 348 346 341 338 333 327 317 313 313 310 306 298 295 299 290 292 289 273 268 261 264 259 276 278 267 257 257 261 261 264 274 255 236 252 255 240 240 242 258 270 255 269
352 352 351 350 348 347 345 343 338 334 329 322 315 310 308 305 296 295 293 295 298 296 275 270 264 259 261 266 266 254 251 258 256 255 255 261 269 251 251 251 241 251 239 250 246 255 281
349 349 351 349 348 347 345 342 337 333 329 323 317 312 309 307 300 296 283 299 298 299 274 269 262 262 253 259 267 258 250 249 260 249 256 264 259 252 235 255 253 236 249 261 237 226 261
351 350 349 348 347 344 343 341 337 332 328 324 318 313 308 306 290 284 290 295 292 286 267 274 263 266 238 241 270 253 250 246 251 252 247 258 254 237 251 214 258 247 253 244 217 233 258
350 349 347 347 346 345 342 338 335 331 324 319 315 312 308 303 291 284 292 290 284 263 262 273 263 250 237 237 252 270 238 247 253 251 254 252 260 253 251 257 240 243 256 232 263 262 260
347 347 346 345 343 341 339 335 331 328 323 317 312 308 301 301 285 292 294 279 257 254 272 270 258 254 243 240 243 256 229 229 238 240 248 251 252 257 262 252 242 199 171 259 268 266 271
348 345 344 342 340 338 336 333 330 327 322 318 312 306 313 302 291 289 284 255 253 262 256 280 266 255 247 245 243 243 240 235 239 246 246 241 247 245 249 247 238 184 202 243 262 265 285
345 344 341 339 338 336 335 331 329 326 321 316 313 328 321 312 300 294 265 248 249 257 270 271 269 249 249 247 251 238 248 236 238 236 245 240 252 245 248 249 230 244 219 227 277 284 293
342 342 341 338 338 336 334 331 327 325 321 317 321 323 321 309 314 293 260 251 252 268 283 273 258 261 249 246 246 241 246 243 240 237 241 257 244 243 246 250 251 240 235 231 270 268 287
340 338 342 338 337 336 334 331 328 325 321 319 332 316 330 327 322 281 262 256 258 263 282 267 263 263 263 257 245 246 245 252 238 243 239 248 252 242 245 245 240 244 237 252 261 276 275
340 339 341 340 337 336 335 331 328 325 323 334 334 308 332 308 295 285 273 268 267 256 269 269 265 264 264 268 257 246 246 244 248 238 237 239 257 246 243 251 244 247 242 246 240 262 272
339 340 340 341 337 337 336 332 329 325 326 333 319 321 323 332 293 279 277 275 269 260 261 257 260 265 274 262 257 263 248 248 247 249 240 237 246 245 242 246 247 241 245 248 256 263 258
341 341 339 341 339 339 336 333 333 329 329 337 329 313 314 312 306 300 287 278 276 268 261 257 255 264 265 261 262 259 261 250 250 242 248 246 245 243 241 240 244 237 243 245 251 254 259
341 341 340 343 342 339 336 337 336 332 330 341 335 319 316 294 290 289 290 282 278 274 266 264 255 255 260 257 260 258 265 259 250 250 245 247 246 246 249 243 242 246 244 248 251 256 255
342 343 341 346 345 341 338 339 337 336 334 347 333 324 317 300 299 291 287 281 284 280 269 259 258 259 259 257 258 255 262 260 251 254 247 247 246 246 244 244 242 246 247 248 251 253 256
339 343 341 347 344 342 343 342 341 340 349 346 342 336 324 305 300 294 285 283 279 284 273 265 267 263 253 260 269 259 260 259 258 256 247 244 244 240 241 243 247 248 247 249 252 256 255
337 341 342 346 346 346 344 344 345 344 350 350 342 331 319 299 297 292 285 281 279 280 271 269 271 263 262 272 267 264 261 259 255 256 250 245 243 244 244 245 246 255 252 252 253 256 256
334 337 338 342 344 346 347 348 347 345 345 348 342 333 317 302 295 291 290 282 279 285 279 269 280 273 268 267 254 253 254 253 250 252 248 249 244 245 243 243 254 257 255 252 251 255 257
334 333 337 342 345 345 346 348 347 345 341 347 342 342 319 305 298 296 288 287 279 280 278 274 284 280 275 262 252 246 244 247 245 249 249 247 248 245 248 245 246 251 257 263 264 253 259
332 331 332 337 340 341 341 343 345 343 338 340 341 339 327 301 301 300 288 282 284 279 273 277 285 273 276 258 250 247 246 252 246 244 241 242 245 243 246 250 255 260 252 265 253 261 262
334 332 332 334 335 336 335 335 337 337 333 333 330 332 331 313 299 291 288 284 281 277 272 276 278 276 266 255 253 251 249 248 252 249 245 244 243 246 247 248 250 260 256 249 265 272 270
332 330 330 331 332 331 331 330 329 330 329 325 322 329 326 320 307 295 275 274 273 269 270 272 268 272 266 266 263 257 253 252 246 246 251 248 248 248 249 250 268 260 259 270 273 270 273